User: anonymous   Login
Location: Unspecified
(0.0000°N, 0.0000°E)
Time: 20:07:20
(UTC+00:00)
Language:

STARLINK-31706 - Orbit

View from above orbital plane
View from above orbital plane
View from above satellite
View from above satellite

Ground track
Ground track

The orbit is defined by the following mean orbital elements,

1 59437U          26145.37351193 +.00000000 +00000-0 +43203-4 0 00007
2 59437  53.1606 287.3675 0000971 104.4332 255.6777 15.30193920    05
Epoch (UTC): 25 May 2026 08:57:51
Eccentricity: 0.0000971
inclination: 53.1606°
perigee height: 475 km
apogee height: 476 km
right ascension of ascending node: 287.3675°
argument of perigee: 104.4332°
revolutions per day: 15.30193920
mean anomaly at epoch: 255.6777°

The dashed part of the orbit path shows where the satellite is in the earth's shadow,  

DLR